Location: De Greiden
(52.9496°N, 5.9137°E)
Time: 02:00:06
(UTC+00:00)

Meteor 2-5 Rocket - Pass Details

Date: 24 January 2021
Orbit: 833 x 911 km, 81.2° (Epoch: 26 February)

Event Time Altitude Azimuth Distance (km) Brightness Sun altitude
Rises 16:45:21 0° 190° (S) 3,386 7.3 -6.0°
Reaches altitude 10° 16:47:45 10° 190° (S) 2,449 6.6 -6.4°
Maximum altitude 16:53:18 87° 103° (ESE) 844 3.7 -7.1°
Drops below altitude 10° 16:58:52 10° 14° (NNE) 2,459 5.8 -7.9°
Sets 17:01:17 0° 14° (NNE) 3,400 6.5 -8.3°
